SL-12 R/B(2), 12850

Orbit data source: Space-Track

SL-12 R/B(2), 12850 is space debris in GEO originally from a launch on Thu, 30 Jul 1981 UTC launched from the Tyuratam Missile And Space Complex (TTMTR). Debris objects in space refer to the collection of defunct objects orbiting the Earth. Examples of debris include non-operational satellites, rocket bodies, and fragments generated from explosions, collisions, or faulty payload assembly.

Loading next visibility...
Identifier
12850, 1981-069F
Orbit
GEO
Country
Flag of CISCIS
Related business
Manufacturer
NPO Energiya
Mission
Spacecraft
Bus & Motor
BLOK DM, Unknown motor
Mass
2,440 kg wet, 2,440 kg dry
Launch date (UTC)
1981-07-30 (44 years ago)
Launch vehicle
Unknown
Launch site
Tyuratam Missile And Space Complex (TTMTR)
Object type
Payload
Rocket body
Debris
Shape & HBR
Unknown
Radar Cross Section
Large (>1 m²)

Expand to show TLE details & history
Last TLE update: 11 hours ago

TLE from 11 hours ago
0 SL-12 R/B(2)
1 12850U 81069F   25298.22815750 -.00000125  00000-0  00000+0 0  9994
2 12850   8.6847 301.5891 0021277 187.4298 180.9919  0.97701160113931
Epoch: 2025-10-25T05:28Z
TLE epoch observation values (Epoch: 2025-10-25T05:28:32.807Z)
Latitude
1.28345°
Longitude
-166.12134°
Altitude
36,613.173 km
Speed
3.042 km/s
True Right ascension
20h 39m 30s
True Declination
1° 16' 56"
Sunlit
Object was in daylight at epoch
Visualization orbit readout
Latitude
Unknown
Longitude
Unknown
Altitude
Unknown
Speed
Unknown
Apparent Right ascension
Unknown
Apparent Declination
Unknown
Sunlit
N/A
Visualization observer readout
Local Sidereal Time
12:09:55
Azimuth
Unknown
Elevation
Unknown
Doppler factor
Unknown
Orbital elements
Apogee altitude
36,615.29 km
Perigee altitude
36,432.724 km
Semi-major axis
42,902.144 km
Eccentricity
0.00213
Inclination
8.6847°
RAAN
301.5891°
Arg. of periapsis
187.4298°
True anomaly
180.98769°
Mean anomaly
180.9919°
Eccentric anomaly
180.98979°
Mean motion
0.24424 °/min
Orbital period
1,473.93 mins
BSTAR
0
Loading maneuver chart data...
Computing Atmospheric mass density...
Loading historical data...
Loading historical data...
Loading historical data...
Loading historical data...
Loading historical data...
Loading historical data...
Loading historical data...

Documentation

Showing up to 5 results
|